Weather History for Ballenas Island, BC

Change the Weather History Date:

Sunday, January 12, 2014

  Actual Average Record
Temperature  
Mean Temperature 43 °F -  
Max Temperature 45 °F - - ()
Min Temperature 41 °F - - ()
Degree Days  
Heating Degree Days 22    
Moisture  
Dew Point 38 °F    
Average Humidity 81    
Maximum Humidity 91    
Minimum Humidity 61    
Precipitation  
Precipitation 0.04 in - - ()
Sea Level Pressure  
Sea Level Pressure 29.96 in    
Wind  
Wind Speed 14 mph ()    
Max Wind Speed 25 mph    
Max Gust Speed -    
T = Trace of Precipitation, MM = Missing Value Source: Averaged Metar Reports

Daily Weather History Graph

Daily Weather History Graph

Search for Another Location

Airport:

Trip Planner

Search our weather history database for the weather conditions in past years. The results will help you decide how hot, cold, wet, or windy it might be!

Date:

Astronomy

Jan. 12, 2014 Rise Set
Actual Time 8:08 AM PST 4:41 PM PST
Civil Twilight 7:31 AM PST 5:18 PM PST
Nautical Twilight 6:51 AM PST 5:58 PM PST
Astronomical Twilight 6:13 AM PST 6:36 PM PST
Moon 2:16 PM PST (1/12) 5:09 AM PST (1/12)
Length of Visible Light 9h 46m
Length of Day
8h 33m
Waxing Gibbous, 90% of the Moon is Illuminated
Jan 12
Waxing Gibbous
Jan 15
Full
Jan 23
Last Quarter
Jan 30
New
Feb 6
First Quarter

Hourly Weather History & Observations

Time (PST) Temp. Windchill Dew Point Humidity Pressure Visibility Wind Dir Wind Speed Gust Speed Precip Events Conditions
12:00 AM 44.8 °F 37.4 °F 37.4 °F 75% 29.72 in - NW 17.3 mph - N/A   Unknown
1:00 AM 45.0 °F 37.4 °F 36.1 °F 71% 29.76 in - NW 18.4 mph - N/A   Unknown
2:00 AM 44.4 °F 37.2 °F 36.9 °F 75% 29.81 in - NW 16.1 mph - N/A   Unknown
3:00 AM 44.6 °F 38.1 °F 36.3 °F 73% 29.84 in - NW 13.8 mph - N/A   Unknown
4:00 AM 44 °F - 35 °F 61% 29.87 in - North 6.9 mph - -  
4:00 AM 44.1 °F 40.1 °F 34.9 °F 70% 29.87 in - North 6.9 mph - N/A   Unknown
5:00 AM 44.2 °F 41.0 °F 36.3 °F 74% 29.88 in - North 5.8 mph - N/A   Unknown
6:00 AM 43.0 °F 40.3 °F 34.7 °F 73% 29.90 in - NE 4.6 mph - 0.02 in   Unknown
7:00 AM 42.1 °F 36.1 °F 36.3 °F 80% 29.91 in - ESE 10.4 mph - 0.02 in   Unknown
8:00 AM 42.3 °F 34.4 °F 37.0 °F 82% 29.91 in - ESE 16.1 mph - 0.01 in   Unknown
9:00 AM 42.4 °F 33.8 °F 37.8 °F 83% 29.94 in - ESE 19.6 mph - N/A   Unknown
10:00 AM 43 °F - 38 °F 77% 29.94 in - ESE 25.3 mph - -  
10:00 AM 42.6 °F 32.8 °F 38.3 °F 85% 29.94 in - ESE 25.3 mph - N/A   Unknown
11:00 AM 42.4 °F 32.6 °F 39.9 °F 91% 29.96 in - East 25.3 mph - N/A   Unknown
12:00 PM 43.5 °F 34.5 °F 40.3 °F 88% 29.96 in - ESE 23.0 mph - N/A   Unknown
1:00 PM 41.9 °F 32.1 °F 39.2 °F 90% 29.95 in - East 24.2 mph - N/A   Unknown
2:00 PM 42.4 °F 33.1 °F 39.0 °F 88% 29.97 in - East 23.0 mph - N/A   Unknown
3:00 PM 43.3 °F 35.0 °F 39.7 °F 87% 30.01 in - East 19.6 mph - N/A   Unknown
4:00 PM 43 °F - 40 °F 83% 30.02 in - ESE 18.4 mph - -  
4:00 PM 43.2 °F 35.0 °F 39.6 °F 87% 30.02 in - ESE 18.4 mph - N/A   Unknown
5:00 PM 43.5 °F 35.5 °F 39.7 °F 87% 30.04 in - ESE 18.4 mph - N/A   Unknown
6:00 PM 43.3 °F 36.1 °F 39.7 °F 87% 30.04 in - East 15.0 mph - N/A   Unknown
7:00 PM 43.5 °F 36.7 °F 39.9 °F 87% 30.05 in - East 13.8 mph - N/A   Unknown
8:00 PM 43.2 °F 36.6 °F 39.9 °F 88% 30.07 in - ENE 12.7 mph - N/A   Unknown
9:00 PM 43.5 °F 38.3 °F 38.3 °F 82% 30.10 in - ENE 9.2 mph - N/A   Unknown
10:00 PM 43 °F - 40 °F 85% 30.12 in - East 5.8 mph - -  
10:00 PM 43.3 °F 39.9 °F 38.3 °F 82% 30.12 in - East 5.8 mph - N/A   Unknown
11:00 PM 43.0 °F 39.5 °F 40.6 °F 91% 30.15 in - ESE 5.8 mph - N/A   Unknown